Location: Seven Kings
(51.5667°N, 0.1000°E)
Time: 14:38:07
(UTC+00:00)

CZ-4 R/B - Pass Details

Date: 29 October 2020
Orbit: 532 x 598 km, 97.7° (Epoch: 28 November)

Event Time Altitude Azimuth Distance (km) Brightness Sun altitude
Rises 17:25:32 0° 133° (SE) 2,693 4.5 -8.0°
Reaches altitude 10° 17:27:54 10° 120° (ESE) 1,798 3.5 -8.4°
Maximum altitude 17:31:06 25° 64° (ENE) 1,101 2.3 -8.9°
Drops below altitude 10° 17:34:19 10° 8° (N) 1,798 3.8 -9.4°
Sets 17:36:40 0° 356° (N) 2,692 4.8 -9.7°
